| time (UTC) | temp F | wind direction | speed MPH | gust MPH | rain 1hr in | rain 24hr in | rain mn in | humidity % | barometer mb |
| 20260510011003 | 55 | 30 | 1.0 | 2.0 | 0.00 | 0.43 | 0.43 | 85 | 1008.8 |
| 20260510010504 | 55 | 161 | 0.0 | 4.0 | 0.00 | 0.43 | 0.43 | 85 | 1008.8 |
| 20260510010021 | 55 | 163 | 0.0 | 4.0 | 0.00 | 0.43 | 0.43 | 85 | 1008.7 |
| 20260510005507 | 55 | 163 | 1.0 | 4.0 | 0.00 | 0.43 | 0.43 | 85 | 1008.6 |
| 20260510005007 | 55 | 189 | 0.0 | 2.0 | 0.00 | 0.43 | 0.43 | 84 | 1008.6 |
| 20260510004512 | 55 | 189 | 0.0 | 2.0 | 0.00 | 0.43 | 0.43 | 84 | 1008.5 |
| 20260510004004 | 56 | 188 | 0.0 | 2.0 | 0.00 | 0.43 | 0.43 | 84 | 1008.6 |
| 20260510003505 | 56 | 189 | 0.0 | 2.0 | 0.00 | 0.43 | 0.43 | 83 | 1008.5 |
| 20260510003013 | 56 | 189 | 0.0 | 3.0 | 0.00 | 0.43 | 0.43 | 83 | 1008.6 |
| 20260510002505 | 57 | 188 | 2.0 | 3.0 | 0.00 | 0.43 | 0.43 | 83 | 1008.5 |
| 20260510002007 | 57 | 189 | 1.0 | 2.0 | 0.00 | 0.43 | 0.43 | 82 | 1008.5 |
| 20260510001511 | 58 | 190 | 1.0 | 2.0 | 0.00 | 0.43 | 0.43 | 1008.3 | |
| 20260510001007 | 58 | 190 | 0.0 | 2.0 | 0.00 | 0.43 | 0.43 | 80 | 1008.2 |
| 20260510000507 | 59 | 190 | 1.0 | 2.0 | 0.00 | 0.43 | 0.43 | 80 | 1008.2 |
| 20260510000017 | 59 | 191 | 0.0 | 0.0 | 0.00 | 0.43 | 0.43 | 80 | 1008.2 |
| 20260509235507 | 60 | 191 | 0.0 | 1.0 | 0.00 | 0.43 | 0.43 | 79 | 1008.2 |
| 20260509235005 | 60 | 191 | 0.0 | 2.0 | 0.00 | 0.43 | 0.43 | 79 | 1008.2 |
| 20260509234515 | 61 | 191 | 0.0 | 2.0 | 0.00 | 0.43 | 0.43 | 78 | 1008.1 |
| 20260509234007 | 61 | 191 | 0.0 | 2.0 | 0.00 | 0.43 | 0.43 | 77 | 1008.1 |
| 20260509233506 | 62 | 191 | 1.0 | 2.0 | 0.00 | 0.43 | 0.43 | 76 | 1008.1 |
| 20260509233013 | 62 | 191 | 0.0 | 2.0 | 0.00 | 0.43 | 0.43 | 77 | 1008.1 |
| 20260509232507 | 62 | 191 | 0.0 | 2.0 | 0.00 | 0.43 | 0.43 | 77 | 1008.2 |
| 20260509232006 | 62 | 191 | 0.0 | 2.0 | 0.00 | 0.43 | 0.43 | 78 | 1008.1 |
| 20260509231506 | 61 | 191 | 0.0 | 2.0 | 0.00 | 0.43 | 0.43 | 79 | 1008.1 |
| 20260509231008 | 61 | 191 | 0.0 | 2.0 | 0.00 | 0.43 | 0.43 | 78 | 1008.1 |
| 20260509230507 | 61 | 191 | 0.0 | 4.0 | 0.00 | 0.43 | 0.43 | 78 | 1008.1 |
| 20260509230021 | 61 | 191 | 2.0 | 5.0 | 0.00 | 0.43 | 0.43 | 78 | 1008.1 |
| 20260509225509 | 61 | 189 | 0.0 | 5.0 | 0.00 | 0.43 | 0.43 | 80 | 1008.1 |
| 20260509225007 | 60 | 169 | 2.0 | 6.0 | 0.00 | 0.43 | 0.43 | 79 | 1008.2 |
| 20260509224521 | 60 | 252 | 1.0 | 6.0 | 0.00 | 0.43 | 0.43 | 79 | 1008.2 |
| 20260509224008 | 60 | 194 | 2.0 | 8.0 | 0.00 | 0.43 | 0.43 | 79 | 1008.2 |
| 20260509223512 | 61 | 178 | 4.0 | 8.0 | 0.00 | 0.43 | 0.43 | 78 | 1008.1 |
| 20260509223016 | 61 | 155 | 3.0 | 5.0 | 0.00 | 0.43 | 0.43 | 78 | 1008.1 |
| 20260509222509 | 61 | 213 | 1.0 | 4.0 | 0.00 | 0.43 | 0.43 | 78 | 1008.3 |
| 20260509222008 | 61 | 213 | 3.0 | 5.0 | 0.00 | 0.43 | 0.43 | 77 | 1008.3 |
| 20260509221515 | 62 | 215 | 0.0 | 5.0 | 0.00 | 0.43 | 0.43 | 77 | 1008.2 |
| 20260509221007 | 62 | 211 | 1.0 | 4.0 | 0.00 | 0.43 | 0.43 | 76 | 1008.3 |
| 20260509220505 | 62 | 264 | 0.0 | 4.0 | 0.00 | 0.43 | 0.43 | 77 | 1008.4 |
| 20260509220011 | 61 | 275 | 1.0 | 6.0 | 0.00 | 0.43 | 0.43 | 77 | 1008.4 |
| 20260509215506 | 61 | 200 | 1.0 | 6.0 | 0.00 | 0.43 | 0.43 | 78 | 1008.3 |
| 20260509215006 | 60 | 191 | 3.0 | 5.0 | 0.00 | 0.43 | 0.43 | 78 | 1008.3 |
| 20260509214516 | 60 | 163 | 0.0 | 7.0 | 0.00 | 0.43 | 0.43 | 81 | 1008.4 |
| 20260509214007 | 59 | 142 | 2.0 | 7.0 | 0.00 | 0.43 | 0.43 | 78 | 1008.4 |
| 20260509213506 | 59 | 200 | 3.0 | 8.0 | 0.00 | 0.43 | 0.43 | 80 | 1008.4 |
| 20260509213019 | 59 | 184 | 4.0 | 8.0 | 0.00 | 0.43 | 0.43 | 80 | 1008.4 |
| 20260509212506 | 59 | 151 | 3.0 | 6.0 | 0.00 | 0.43 | 0.43 | 83 | 1008.4 |
| 20260509212009 | 58 | 175 | 2.0 | 6.0 | 0.00 | 0.43 | 0.43 | 83 | 1008.6 |
| 20260509211519 | 58 | 157 | 2.0 | 5.0 | 0.00 | 0.43 | 0.43 | 85 | 1008.5 |
| 20260509211009 | 57 | 215 | 2.0 | 5.0 | 0.00 | 0.43 | 0.43 | 88 | 1008.6 |
| 20260509210508 | 56 | 217 | 2.0 | 5.0 | 0.00 | 0.43 | 0.43 | 89 | 1008.7 |
| 20260509210018 | 56 | 209 | 1.0 | 5.0 | 0.00 | 0.43 | 0.43 | 90 | 1008.7 |
| 20260509205508 | 55 | 203 | 2.0 | 4.0 | 0.00 | 0.43 | 0.43 | 91 | 1008.7 |
| 20260509205006 | 55 | 144 | 0.0 | 3.0 | 0.00 | 0.43 | 0.43 | 91 | 1008.7 |
| 20260509204513 | 55 | 143 | 1.0 | 5.0 | 0.00 | 0.43 | 0.43 | 92 | 1008.8 |
| 20260509204009 | 55 | 163 | 2.0 | 6.0 | 0.00 | 0.43 | 0.43 | 91 | 1008.8 |
| 20260509203507 | 55 | 157 | 3.0 | 7.0 | 0.00 | 0.43 | 0.43 | 92 | 1008.7 |
| 20260509203024 | 54 | 149 | 2.0 | 7.0 | 0.00 | 0.43 | 0.43 | 92 | 1008.6 |
| 20260509202508 | 54 | 173 | 2.0 | 5.0 | 0.00 | 0.43 | 0.43 | 93 | 1008.8 |
| 20260509202008 | 54 | 160 | 1.0 | 5.0 | 0.00 | 0.43 | 0.43 | 93 | 1008.7 |
| 20260509201522 | 54 | 162 | 3.0 | 5.0 | 0.00 | 0.43 | 0.43 | 93 | 1008.8 |
| 20260509201010 | 54 | 169 | 2.0 | 4.0 | 0.01 | 0.43 | 0.43 | 93 | 1008.8 |
| 20260509200510 | 54 | 167 | 1.0 | 3.0 | 0.01 | 0.43 | 0.43 | 93 | 1008.7 |
| 20260509200020 | 54 | 168 | 0.0 | 2.0 | 0.01 | 0.43 | 0.43 | 93 | 1008.7 |
| 20260509195512 | 54 | 168 | 0.0 | 2.0 | 0.01 | 0.43 | 0.43 | 92 | 1008.8 |
| 20260509195009 | 54 | 169 | 0.0 | 5.0 | 0.01 | 0.43 | 0.43 | 92 | 1008.9 |
| 20260509194531 | 54 | 169 | 0.0 | 6.0 | 0.02 | 0.43 | 0.43 | 92 | 1009.1 |
| 20260509194006 | 54 | 185 | 1.0 | 6.0 | 0.02 | 0.43 | 0.43 | 92 | 1009.3 |
| 20260509193509 | 54 | 167 | 3.0 | 7.0 | 0.02 | 0.43 | 0.43 | 92 | 1009.3 |
| 20260509193022 | 54 | 153 | 2.0 | 7.0 | 0.03 | 0.43 | 0.43 | 91 | 1009.4 |
| 20260509192508 | 54 | 194 | 4.0 | 7.0 | 0.03 | 0.43 | 0.43 | 91 | 1009.5 |
| 20260509192008 | 54 | 218 | 3.0 | 5.0 | 0.03 | 0.43 | 0.43 | 91 | 1009.5 |
| 20260509191520 | 54 | 160 | 3.0 | 7.0 | 0.03 | 0.43 | 0.43 | 91 | 1009.5 |
| 20260509191012 | 54 | 163 | 3.0 | 8.0 | 0.03 | 0.42 | 0.42 | 91 | 1009.6 |
| 20260509190509 | 54 | 158 | 2.0 | 8.0 | 0.03 | 0.42 | 0.42 | 92 | 1009.7 |
| 20260509190025 | 54 | 185 | 2.0 | 6.0 | 0.03 | 0.42 | 0.42 | 92 | 1009.7 |
| 20260509185510 | 54 | 200 | 4.0 | 8.0 | 0.04 | 0.42 | 0.42 | 92 | 1009.7 |
| 20260509185010 | 53 | 197 | 5.0 | 8.0 | 0.04 | 0.42 | 0.42 | 91 | 1009.6 |
| 20260509184527 | 54 | 221 | 1.0 | 5.0 | 0.03 | 0.41 | 0.41 | 92 | 1009.7 |
| 20260509184006 | 54 | 206 | 0.0 | 4.0 | 0.04 | 0.41 | 0.41 | 93 | 1009.7 |
| 20260509183507 | 53 | 193 | 0.0 | 3.0 | 0.04 | 0.41 | 0.41 | 93 | 1009.6 |
| 20260509183015 | 53 | 193 | 2.0 | 4.0 | 0.04 | 0.40 | 0.40 | 92 | 1009.6 |
| 20260509182508 | 53 | 199 | 1.0 | 4.0 | 0.04 | 0.40 | 0.40 | 92 | 1009.5 |
| 20260509182009 | 53 | 202 | 1.0 | 4.0 | 0.05 | 0.40 | 0.40 | 92 | 1009.5 |
| 20260509181517 | 53 | 202 | 2.0 | 5.0 | 0.06 | 0.40 | 0.40 | 92 | 1009.6 |
| 20260509181014 | 53 | 196 | 3.0 | 5.0 | 0.05 | 0.39 | 0.39 | 93 | 1009.7 |
| 20260509180509 | 53 | 267 | 1.0 | 4.0 | 0.06 | 0.39 | 0.39 | 93 | 1009.8 |
| 20260509180025 | 53 | 209 | 0.0 | 5.0 | 0.07 | 0.39 | 0.39 | 93 | 1009.9 |
| 20260509175506 | 53 | 208 | 2.0 | 5.0 | 0.07 | 0.38 | 0.38 | 93 | 1010.1 |
| 20260509175010 | 53 | 213 | 1.0 | 4.0 | 0.08 | 0.38 | 0.38 | 93 | 1010.1 |
| 20260509174522 | 52 | 182 | 1.0 | 8.0 | 0.10 | 0.38 | 0.38 | 93 | 1010.2 |
| 20260509174004 | 52 | 180 | 3.0 | 8.0 | 0.11 | 0.37 | 0.37 | 93 | 1010.2 |
| 20260509173506 | 52 | 196 | 2.0 | 5.0 | 0.12 | 0.37 | 0.37 | 93 | 1010.3 |
| 20260509173012 | 52 | 202 | 3.0 | 6.0 | 0.12 | 0.36 | 0.36 | 92 | 1010.3 |
| 20260509172509 | 52 | 188 | 2.0 | 6.0 | 0.14 | 0.36 | 0.36 | 92 | 1010.2 |
| 20260509172007 | 52 | 242 | 0.0 | 3.0 | 0.14 | 0.35 | 0.35 | 92 | 1010.3 |
| 20260509171515 | 52 | 232 | 0.0 | 6.0 | 0.13 | 0.34 | 0.34 | 92 | 1010.4 |
| 20260509171007 | 52 | 191 | 1.0 | 6.0 | 0.14 | 0.34 | 0.34 | 92 | 1010.4 |
| 20260509170509 | 52 | 186 | 1.0 | 5.0 | 0.14 | 0.33 | 0.33 | 92 | 1010.4 |
| 20260509170022 | 52 | 208 | 1.0 | 5.0 | 0.14 | 0.32 | 0.32 | 92 | 1010.1 |
| 20260509165508 | 52 | 223 | 0.0 | 3.0 | 0.14 | 0.31 | 0.31 | 92 | 1009.8 |
| 20260509165010 | 52 | 215 | 0.0 | 4.0 | 0.14 | 0.30 | 0.30 | 92 | 1009.8 |
| 20260509164524 | 52 | 192 | 0.0 | 7.0 | 0.13 | 0.28 | 0.28 | 92 | 1010.1 |
| 20260509164011 | 52 | 192 | 4.0 | 7.0 | 0.13 | 0.26 | 0.26 | 92 | 1010.2 |
| 20260509163508 | 52 | 159 | 1.0 | 7.0 | 0.14 | 0.25 | 0.25 | 92 | 1010.0 |
| 20260509163009 | 52 | 167 | 3.0 | 6.0 | 0.17 | 0.24 | 0.24 | 92 | 1009.9 |
| 20260509162506 | 52 | 154 | 1.0 | 7.0 | 0.17 | 0.22 | 0.22 | 92 | 1009.9 |
| 20260509162007 | 52 | 175 | 0.0 | 7.0 | 0.18 | 0.21 | 0.21 | 92 | 1010.1 |
| 20260509161514 | 52 | 200 | 3.0 | 5.0 | 0.19 | 0.21 | 0.21 | 91 | 1010.3 |
| 20260509161008 | 52 | 151 | 2.0 | 5.0 | 0.18 | 0.20 | 0.20 | 92 | 1010.4 |
| 20260509160507 | 52 | 157 | 2.0 | 6.0 | 0.18 | 0.19 | 0.19 | 92 | 1010.4 |
| 20260509160018 | 52 | 151 | 4.0 | 8.0 | 0.18 | 0.18 | 0.18 | 91 | 1010.5 |
| 20260509155507 | 52 | 177 | 1.0 | 8.0 | 0.17 | 0.17 | 0.17 | 91 | 1010.6 |
| 20260509155010 | 52 | 152 | 5.0 | 10.0 | 0.16 | 0.16 | 0.16 | 90 | 1010.7 |
| 20260509154524 | 52 | 150 | 3.0 | 10.0 | 0.15 | 0.15 | 0.15 | 90 | 1010.8 |
| 20260509154013 | 52 | 166 | 4.0 | 10.0 | 0.13 | 0.13 | 0.13 | 89 | 1010.8 |
| 20260509153510 | 52 | 202 | 5.0 | 9.0 | 0.11 | 0.11 | 0.11 | 89 | 1010.9 |
| 20260509153040 | 52 | 183 | 4.0 | 9.0 | 0.07 | 0.07 | 0.07 | 88 | 1011.1 |
| 20260509152511 | 53 | 205 | 3.0 | 6.0 | 0.05 | 0.05 | 0.05 | 88 | 1011.0 |
| 20260509152012 | 53 | 179 | 3.0 | 6.0 | 0.03 | 0.03 | 0.03 | 87 | 1011.0 |
| 20260509151512 | 53 | 172 | 3.0 | 10.0 | 0.02 | 0.02 | 0.02 | 86 | 1010.9 |
| 20260509151006 | 53 | 160 | 4.0 | 10.0 | 0.02 | 0.02 | 0.02 | 86 | 1010.8 |
| 20260509150509 | 53 | 209 | 3.0 | 7.0 | 0.01 | 0.01 | 0.01 | 85 | 1010.7 |
| 20260509150018 | 53 | 148 | 2.0 | 7.0 | 0.00 | 0.00 | 0.00 | 85 | 1010.7 |
| 20260509145507 | 53 | 157 | 3.0 | 7.0 | 0.00 | 0.00 | 0.00 | 85 | 1010.7 |
| 20260509145009 | 53 | 148 | 3.0 | 6.0 | 0.00 | 0.00 | 0.00 | 84 | 1010.8 |
| 20260509144523 | 53 | 205 | 4.0 | 6.0 | 0.00 | 0.00 | 0.00 | 83 | 1010.8 |
| 20260509144008 | 53 | 210 | 3.0 | 4.0 | 0.00 | 0.00 | 0.00 | 83 | 1010.6 |
| 20260509143509 | 53 | 173 | 0.0 | 3.0 | 0.00 | 0.00 | 0.00 | 84 | 1010.6 |
| 20260509143028 | 53 | 190 | 1.0 | 3.0 | 0.00 | 0.00 | 0.00 | 85 | 1010.5 |
| 20260509142509 | 53 | 185 | 0.0 | 2.0 | 0.00 | 0.00 | 0.00 | 85 | 1010.4 |
| 20260509142009 | 53 | 185 | 0.0 | 2.0 | 0.00 | 0.00 | 0.00 | 86 | 1010.3 |
| 20260509141536 | 52 | 185 | 1.0 | 8.0 | 0.00 | 0.00 | 0.00 | 85 | 1010.3 |
| 20260509141014 | 52 | 186 | 2.0 | 8.0 | 0.00 | 0.00 | 0.00 | 84 | 1010.4 |
| 20260509140508 | 52 | 183 | 3.0 | 8.0 | 0.00 | 0.00 | 0.00 | 86 | 1010.6 |
| 20260509140014 | 52 | 180 | 2.0 | 7.0 | 0.00 | 0.00 | 0.00 | 86 | 1010.6 |
| 20260509135510 | 52 | 199 | 2.0 | 5.0 | 0.00 | 0.00 | 0.00 | 87 | 1010.7 |
| 20260509135011 | 52 | 207 | 1.0 | 5.0 | 0.00 | 0.00 | 0.00 | 90 | 1010.6 |
| 20260509134519 | 52 | 242 | 0.0 | 4.0 | 0.00 | 0.00 | 0.00 | 89 | 1010.4 |
| 20260509134009 | 51 | 192 | 1.0 | 4.0 | 0.00 | 0.00 | 0.00 | 90 | 1010.3 |
| 20260509133508 | 51 | 192 | 1.0 | 3.0 | 0.00 | 0.00 | 0.00 | 90 | 1010.2 |
| 20260509133025 | 51 | 57 | 0.0 | 2.0 | 0.00 | 0.00 | 0.00 | 91 | 1010.1 |
| 20260509132507 | 51 | 57 | 0.0 | 0.0 | 0.00 | 0.00 | 0.00 | 91 | 1010.0 |
| 20260509132010 | 51 | 57 | 0.0 | 2.0 | 0.00 | 0.00 | 0.00 | 90 | 1010.1 |
| 20260509131526 | 51 | 57 | 0.0 | 5.0 | 0.00 | 0.00 | 0.00 | 90 | 1010.1 |
| 20260509131010 | 51 | 57 | 0.0 | 5.0 | 0.00 | 0.00 | 0.00 | 90 | 1009.9 |
| 20260509130510 | 51 | 56 | 3.0 | 5.0 | 0.00 | 0.00 | 0.00 | 90 | 1009.8 |
| 20260509130026 | 52 | 251 | 2.0 | 3.0 | 0.00 | 0.00 | 0.00 | 90 | 1010.1 |
| 20260509125512 | 51 | 240 | 0.0 | 2.0 | 0.00 | 0.00 | 0.00 | 90 | 1010.2 |
| 20260509125007 | 51 | 240 | 0.0 | 2.0 | 0.00 | 0.00 | 0.00 | 90 | 1010.3 |
| 20260509124517 | 51 | 240 | 0.0 | 2.0 | 0.00 | 0.00 | 0.00 | 90 | 1010.6 |
| 20260509124008 | 51 | 238 | 0.0 | 2.0 | 0.00 | 0.00 | 0.00 | 90 | 1010.6 |
| 20260509123507 | 51 | 238 | 0.0 | 4.0 | 0.00 | 0.00 | 0.00 | 90 | 1010.6 |
| 20260509123022 | 50 | 238 | 0.0 | 4.0 | 0.00 | 0.00 | 0.00 | 89 | 1010.6 |
| 20260509122509 | 50 | 267 | 0.0 | 2.0 | 0.00 | 0.00 | 0.00 | 89 | 1010.6 |
| 20260509122010 | 50 | 267 | 0.0 | 2.0 | 0.00 | 0.00 | 0.00 | 88 | 1010.6 |
| 20260509121522 | 50 | 267 | 0.0 | 2.0 | 0.00 | 0.00 | 0.00 | 88 | 1010.5 |
| 20260509121015 | 50 | 267 | 1.0 | 2.0 | 0.00 | 0.00 | 0.00 | 87 | 1010.4 |
| 20260509120508 | 50 | 267 | 0.0 | 2.0 | 0.00 | 0.00 | 0.00 | 87 | 1010.3 |
| 20260509120027 | 50 | 267 | 0.0 | 2.0 | 0.00 | 0.00 | 0.00 | 87 | 1010.3 |
| 20260509115508 | 50 | 266 | 1.0 | 3.0 | 0.00 | 0.00 | 0.00 | 86 | 1010.4 |
| 20260509115012 | 50 | 266 | 0.0 | 5.0 | 0.00 | 0.00 | 0.00 | 85 | 1010.3 |
| 20260509114529 | 51 | 279 | 1.0 | 5.0 | 0.00 | 0.00 | 0.00 | 85 | 1010.4 |
| 20260509114009 | 51 | 244 | 0.0 | 3.0 | 0.00 | 0.00 | 0.00 | 84 | 1010.1 |
| 20260509113510 | 51 | 244 | 1.0 | 5.0 | 0.00 | 0.00 | 0.00 | 82 | 1010.1 |
| 20260509113022 | 52 | 316 | 2.0 | 5.0 | 0.00 | 0.00 | 0.00 | 81 | 1010.1 |
| 20260509112507 | 52 | 293 | 1.0 | 4.0 | 0.00 | 0.00 | 0.00 | 79 | 1010.1 |
| 20260509112010 | 52 | 32 | 1.0 | 2.0 | 0.00 | 0.00 | 0.00 | 78 | 1009.8 |
| 20260509111522 | 52 | 148 | 0.0 | 2.0 | 0.00 | 0.00 | 0.00 | 79 | 1009.5 |
| 20260509111010 | 52 | 148 | 0.0 | 4.0 | 0.00 | 0.00 | 0.00 | 79 | 1009.6 |
| 20260509110511 | 52 | 145 | 0.0 | 5.0 | 0.00 | 0.00 | 0.00 | 79 | 1009.5 |
| 20260509110025 | 52 | 150 | 0.0 | 7.0 | 0.00 | 0.00 | 0.00 | 79 | 1009.5 |
| 20260509105510 | 51 | 150 | 3.0 | 7.0 | 0.00 | 0.00 | 0.00 | 79 | 1009.4 |
| 20260509105010 | 51 | 150 | 0.0 | 4.0 | 0.00 | 0.00 | 0.00 | 80 | 1009.4 |
| 20260509104528 | 51 | 150 | 1.0 | 4.0 | 0.00 | 0.00 | 0.00 | 80 | 1009.5 |
| 20260509104008 | 50 | 149 | 0.0 | 0.0 | 0.00 | 0.00 | 0.00 | 80 | 1009.6 |
| 20260509103509 | 50 | 148 | 0.0 | 2.0 | 0.00 | 0.00 | 0.00 | 80 | 1009.6 |
| 20260509103027 | 50 | 148 | 0.0 | 2.0 | 0.00 | 0.00 | 0.00 | 80 | 1009.6 |
| 20260509102508 | 50 | 148 | 1.0 | 2.0 | 0.00 | 0.00 | 0.00 | 79 | 1009.8 |
| 20260509102011 | 50 | 148 | 1.0 | 2.0 | 0.00 | 0.00 | 0.00 | 80 | 1009.8 |
| 20260509101520 | 51 | 148 | 1.0 | 2.0 | 0.00 | 0.00 | 0.00 | 79 | 1009.8 |
| 20260509101007 | 51 | 147 | 1.0 | 2.0 | 0.00 | 0.00 | 0.00 | 78 | 1009.8 |
| 20260509100508 | 52 | 147 | 0.0 | 2.0 | 0.00 | 0.00 | 0.00 | 75 | 1009.8 |
| 20260509100028 | 52 | 146 | 0.0 | 1.0 | 0.00 | 0.00 | 0.00 | 74 | 1009.6 |
| 20260509095512 | 52 | 146 | 0.0 | 2.0 | 0.00 | 0.00 | 0.00 | 74 | 1009.6 |
| 20260509095012 | 52 | 146 | 0.0 | 2.0 | 0.00 | 0.00 | 0.00 | 74 | 1009.6 |
| 20260509094526 | 52 | 146 | 0.0 | 2.0 | 0.00 | 0.00 | 0.00 | 74 | 1009.5 |
| 20260509094005 | 52 | 146 | 0.0 | 2.0 | 0.00 | 0.00 | 0.00 | 74 | 1009.6 |
| 20260509093505 | 51 | 146 | 0.0 | 3.0 | 0.00 | 0.00 | 0.00 | 74 | 1009.7 |
| 20260509093012 | 51 | 145 | 0.0 | 3.0 | 0.00 | 0.00 | 0.00 | 75 | 1009.7 |
| 20260509092507 | 51 | 161 | 0.0 | 3.0 | 0.00 | 0.00 | 0.00 | 75 | 1009.7 |
| 20260509092008 | 51 | 120 | 0.0 | 3.0 | 0.00 | 0.00 | 0.00 | 75 | 1009.4 |
| 20260509091519 | 51 | 119 | 0.0 | 6.0 | 0.00 | 0.00 | 0.00 | 75 | 1009.5 |
| 20260509091013 | 51 | 146 | 0.0 | 8.0 | 0.00 | 0.00 | 0.00 | 75 | 1009.5 |
| 20260509090510 | 51 | 161 | 3.0 | 8.0 | 0.00 | 0.00 | 0.00 | 75 | 1009.6 |
| 20260509090035 | 51 | 142 | 0.0 | 4.0 | 0.00 | 0.00 | 0.00 | 76 | 1009.5 |
| 20260509085504 | 51 | 157 | 0.0 | 6.0 | 0.00 | 0.00 | 0.00 | 76 | 1009.6 |
| 20260509085004 | 51 | 156 | 2.0 | 6.0 | 0.00 | 0.00 | 0.00 | 76 | 1009.7 |
| 20260509084507 | 51 | 161 | 2.0 | 6.0 | 0.00 | 0.00 | 0.00 | 76 | 1009.8 |
| 20260509084006 | 51 | 163 | 1.0 | 5.0 | 0.00 | 0.00 | 0.00 | 76 | 1009.8 |
| 20260509083504 | 51 | 161 | 2.0 | 5.0 | 0.00 | 0.00 | 0.00 | 76 | 1009.9 |
| 20260509083011 | 51 | 161 | 1.0 | 5.0 | 0.00 | 0.00 | 0.00 | 76 | 1009.9 |
| 20260509082507 | 51 | 163 | 1.0 | 5.0 | 0.00 | 0.00 | 0.00 | 76 | 1009.9 |
| 20260509082009 | 51 | 165 | 0.0 | 4.0 | 0.00 | 0.00 | 0.00 | 76 | 1009.8 |
| 20260509081513 | 51 | 166 | 2.0 | 5.0 | 0.00 | 0.00 | 0.00 | 75 | 1009.8 |
| 20260509081009 | 51 | 152 | 2.0 | 5.0 | 0.00 | 0.00 | 0.00 | 75 | 1009.9 |
| 20260509080508 | 51 | 148 | 2.0 | 6.0 | 0.00 | 0.00 | 0.00 | 75 | 1009.9 |
| 20260509080020 | 51 | 155 | 2.0 | 6.0 | 0.00 | 0.00 | 0.00 | 75 | 1010.0 |
| 20260509075508 | 51 | 153 | 2.0 | 4.0 | 0.00 | 0.00 | 0.00 | 75 | 1010.0 |
| 20260509075013 | 51 | 153 | 1.0 | 3.0 | 0.00 | 0.00 | 0.00 | 75 | 1010.1 |
| 20260509074504 | 51 | 151 | 1.0 | 4.0 | 0.00 | 0.00 | 0.00 | 75 | 1010.2 |
| 20260509074004 | 51 | 151 | 3.0 | 4.0 | 0.00 | 0.00 | 0.00 | 75 | 1010.2 |
| 20260509073504 | 51 | 149 | 2.0 | 3.0 | 0.00 | 0.00 | 0.00 | 76 | 1010.3 |
| 20260509073021 | 51 | 148 | 1.0 | 2.0 | 0.00 | 0.00 | 0.00 | 76 | 1010.3 |
| 20260509072505 | 50 | 147 | 0.0 | 2.0 | 0.00 | 0.00 | 0.00 | 76 | 1010.3 |
| 20260509072008 | 50 | 147 | 0.0 | 2.0 | 0.00 | 0.00 | 0.00 | 76 | 1010.6 |
| 20260509071512 | 50 | 147 | 0.0 | 2.0 | 0.00 | 0.00 | 0.00 | 76 | 1010.7 |
| 20260509071007 | 50 | 147 | 0.0 | 2.0 | 0.00 | 0.00 | 0.00 | 76 | 1010.8 |
| 20260509070508 | 50 | 147 | 0.0 | 0.0 | 0.00 | 0.00 | 0.00 | 75 | 1010.8 |
| 20260509070016 | 51 | 147 | 0.0 | 0.0 | 0.00 | 0.00 | 0.00 | 75 | 1010.8 |
| 20260509065509 | 51 | 147 | 0.0 | 2.0 | 0.00 | 0.00 | 0.00 | 75 | 1010.8 |
| 20260509065011 | 51 | 147 | 0.0 | 2.0 | 0.00 | 0.00 | 0.00 | 75 | 1010.8 |
| 20260509064524 | 51 | 148 | 0.0 | 2.0 | 0.00 | 0.00 | 0.00 | 74 | 1010.9 |
| 20260509064016 | 51 | 147 | 0.0 | 2.0 | 0.00 | 0.00 | 0.00 | 74 | 1011.0 |
| 20260509063509 | 51 | 147 | 0.0 | 0.0 | 0.00 | 0.00 | 0.00 | 74 | 1011.0 |
| 20260509063013 | 51 | 147 | 0.0 | 0.0 | 0.00 | 0.00 | 0.00 | 74 | 1011.0 |
| 20260509062505 | 51 | 148 | 0.0 | 2.0 | 0.00 | 0.00 | 0.00 | 74 | 1011.1 |
| 20260509062008 | 52 | 147 | 0.0 | 2.0 | 0.00 | 0.00 | 0.00 | 74 | 1011.0 |
| 20260509061509 | 52 | 148 | 0.0 | 2.0 | 0.00 | 0.00 | 0.00 | 74 | 1011.0 |
| 20260509061008 | 52 | 148 | 0.0 | 0.0 | 0.00 | 0.00 | 0.00 | 73 | 1011.1 |
| 20260509060505 | 52 | 148 | 0.0 | 0.0 | 0.00 | 0.00 | 0.00 | 73 | 1011.2 |
| 20260509060025 | 52 | 148 | 0.0 | 0.0 | 0.00 | 0.00 | 0.00 | 73 | 1011.2 |
| 20260509055507 | 52 | 148 | 0.0 | 1.0 | 0.00 | 0.00 | 0.00 | 73 | 1011.2 |
| 20260509055008 | 52 | 148 | 0.0 | 1.0 | 0.00 | 0.00 | 0.00 | 73 | 1011.2 |
| 20260509054522 | 52 | 148 | 0.0 | 1.0 | 0.00 | 0.00 | 0.00 | 74 | 1011.2 |
| 20260509054010 | 52 | 148 | 0.0 | 1.0 | 0.00 | 0.00 | 0.00 | 74 | 1011.2 |
| 20260509053509 | 52 | 148 | 0.0 | 1.0 | 0.00 | 0.00 | 0.00 | 75 | 1011.3 |
| 20260509053037 | 52 | 148 | 0.0 | 0.0 | 0.00 | 0.00 | 0.00 | 74 | 1011.4 |
| 20260509052508 | 52 | 148 | 0.0 | 0.0 | 0.00 | 0.00 | 0.00 | 75 | 1011.5 |
| 20260509052010 | 52 | 148 | 0.0 | 2.0 | 0.00 | 0.00 | 0.00 | 75 | 1011.5 |
| 20260509051513 | 52 | 148 | 0.0 | 2.0 | 0.00 | 0.00 | 0.00 | 76 | 1011.5 |
| 20260509051006 | 53 | 148 | 0.0 | 2.0 | 0.00 | 0.00 | 0.00 | 76 | 1011.5 |
| 20260509050505 | 53 | 148 | 0.0 | 1.0 | 0.00 | 0.00 | 0.00 | 75 | 1011.5 |
| 20260509050014 | 53 | 148 | 0.0 | 0.0 | 0.00 | 0.00 | 0.00 | 74 | 1011.5 |
| 20260509045509 | 53 | 148 | 0.0 | 1.0 | 0.00 | 0.00 | 0.00 | 72 | 1011.4 |
| 20260509045007 | 53 | 148 | 0.0 | 2.0 | 0.00 | 0.00 | 0.00 | 72 | 1011.5 |
| 20260509044518 | 53 | 148 | 0.0 | 2.0 | 0.00 | 0.00 | 0.00 | 72 | 1011.2 |
| 20260509044010 | 53 | 147 | 0.0 | 3.0 | 0.00 | 0.00 | 0.00 | 73 | 1011.2 |
| 20260509043512 | 53 | 147 | 1.0 | 3.0 | 0.00 | 0.00 | 0.00 | 73 | 1011.2 |
| 20260509043037 | 53 | 145 | 1.0 | 3.0 | 0.00 | 0.00 | 0.00 | 74 | 1011.3 |
| 20260509042511 | 53 | 156 | 2.0 | 3.0 | 0.00 | 0.00 | 0.00 | 74 | 1011.4 |
| 20260509042011 | 53 | 153 | 2.0 | 3.0 | 0.00 | 0.00 | 0.00 | 75 | 1011.4 |
| 20260509041526 | 53 | 154 | 2.0 | 4.0 | 0.00 | 0.00 | 0.00 | 74 | 1011.5 |
| 20260509041011 | 53 | 155 | 1.0 | 5.0 | 0.00 | 0.00 | 0.00 | 74 | 1011.5 |
| 20260509040504 | 53 | 158 | 4.0 | 5.0 | 0.00 | 0.00 | 0.00 | 74 | 1011.5 |
| 20260509040011 | 54 | 159 | 0.0 | 1.0 | 0.00 | 0.00 | 0.00 | 74 | 1011.5 |
| 20260509035507 | 54 | 159 | 0.0 | 4.0 | 0.00 | 0.00 | 0.00 | 73 | 1011.7 |
| 20260509035007 | 54 | 159 | 1.0 | 4.0 | 0.00 | 0.00 | 0.00 | 71 | 1011.5 |
| 20260509034515 | 54 | 159 | 3.0 | 4.0 | 0.00 | 0.00 | 0.00 | 70 | 1011.5 |
| 20260509034010 | 54 | 160 | 1.0 | 4.0 | 0.00 | 0.00 | 0.00 | 70 | 1011.5 |
| 20260509033513 | 54 | 160 | 2.0 | 4.0 | 0.00 | 0.00 | 0.00 | 70 | 1011.5 |
| 20260509033023 | 55 | 161 | 2.0 | 5.0 | 0.00 | 0.00 | 0.00 | 70 | 1011.5 |
| 20260509032507 | 54 | 161 | 4.0 | 5.0 | 0.00 | 0.00 | 0.00 | 69 | 1011.6 |
| 20260509032009 | 54 | 162 | 3.0 | 4.0 | 0.00 | 0.00 | 0.00 | 70 | 1011.6 |
| 20260509031527 | 54 | 159 | 2.0 | 4.0 | 0.00 | 0.00 | 0.00 | 70 | 1011.7 |
| 20260509031011 | 54 | 158 | 2.0 | 4.0 | 0.00 | 0.00 | 0.00 | 72 | 1011.7 |
| 20260509030512 | 53 | 154 | 2.0 | 4.0 | 0.00 | 0.00 | 0.00 | 73 | 1011.7 |
| 20260509030026 | 53 | 153 | 1.0 | 2.0 | 0.00 | 0.00 | 0.00 | 73 | 1011.6 |
| 20260509025510 | 53 | 153 | 0.0 | 0.0 | 0.00 | 0.00 | 0.00 | 73 | 1011.6 |
| 20260509025011 | 54 | 153 | 0.0 | 2.0 | 0.00 | 0.00 | 0.00 | 74 | 1011.6 |
| 20260509024514 | 54 | 153 | 0.0 | 2.0 | 0.00 | 0.00 | 0.00 | 73 | 1011.7 |
| 20260509024008 | 54 | 153 | 0.0 | 2.0 | 0.00 | 0.00 | 0.00 | 70 | 1011.6 |
| 20260509023507 | 54 | 153 | 0.0 | 2.0 | 0.00 | 0.00 | 0.00 | 71 | 1011.6 |
| 20260509023018 | 54 | 153 | 0.0 | 2.0 | 0.00 | 0.00 | 0.00 | 71 | 1011.6 |
| 20260509022508 | 53 | 153 | 2.0 | 3.0 | 0.00 | 0.00 | 0.00 | 71 | 1011.6 |
| 20260509022008 | 53 | 153 | 1.0 | 3.0 | 0.00 | 0.00 | 0.00 | 72 | 1011.5 |
| 20260509021524 | 53 | 153 | 2.0 | 3.0 | 0.00 | 0.00 | 0.00 | 73 | 1011.5 |
| 20260509021008 | 53 | 153 | 2.0 | 4.0 | 0.00 | 0.00 | 0.00 | 74 | 1011.4 |
| 20260509020509 | 53 | 154 | 2.0 | 5.0 | 0.00 | 0.00 | 0.00 | 74 | 1011.3 |
| 20260509020026 | 53 | 156 | 2.0 | 5.0 | 0.00 | 0.00 | 0.00 | 75 | 1011.3 |
| 20260509015510 | 53 | 158 | 1.0 | 4.0 | 0.00 | 0.00 | 0.00 | 75 | 1011.3 |
| 20260509015011 | 53 | 159 | 3.0 | 4.0 | 0.00 | 0.00 | 0.00 | 73 | 1011.4 |
| 20260509014531 | 53 | 161 | 2.0 | 2.0 | 0.00 | 0.00 | 0.00 | 74 | 1011.5 |
| 20260509014007 | 53 | 161 | 1.0 | 2.0 | 0.00 | 0.00 | 0.00 | 73 | 1011.6 |
| 20260509013512 | 53 | 161 | 0.0 | 2.0 | 0.00 | 0.00 | 0.00 | 72 | 1011.5 |
| 20260509013017 | 53 | 161 | 1.0 | 5.0 | 0.00 | 0.00 | 0.00 | 72 | 1011.6 |
| 20260509012508 | 53 | 161 | 1.0 | 5.0 | 0.00 | 0.00 | 0.00 | 73 | 1011.5 |
| 20260509012010 | 53 | 215 | 2.0 | 3.0 | 0.00 | 0.00 | 0.00 | 72 | 1011.5 |
| 20260509011520 | 53 | 215 | 1.0 | 3.0 | 0.00 | 0.00 | 0.00 | 73 | 1011.4 |